Year,Month,Day,Hour,Minute,Value (Times are PST for temperature in C)
2007,06,29,00,00,13.70
2007,06,29,00,01,13.70
2007,06,29,00,02,13.70
2007,06,29,00,03,13.70
2007,06,29,00,04,13.60
2007,06,29,00,05,13.60
2007,06,29,00,06,13.60
2007,06,29,00,07,13.60
2007,06,29,00,08,13.60
2007,06,29,00,09,13.60
2007,06,29,00,10,13.50
2007,06,29,00,11,13.50
2007,06,29,00,12,13.60
2007,06,29,00,13,13.60
2007,06,29,00,14,13.60
2007,06,29,00,15,13.60
2007,06,29,00,16,13.60
2007,06,29,00,17,13.60
2007,06,29,00,18,13.70
2007,06,29,00,19,13.70
2007,06,29,00,20,13.70
2007,06,29,00,21,13.70
2007,06,29,00,22,13.70
2007,06,29,00,23,13.70
2007,06,29,00,24,13.70
2007,06,29,00,25,13.70
2007,06,29,00,26,13.70
2007,06,29,00,27,13.70
2007,06,29,00,28,13.70
2007,06,29,00,29,13.70
2007,06,29,00,30,13.70
2007,06,29,00,31,13.70
2007,06,29,00,32,13.70
2007,06,29,00,33,13.80
2007,06,29,00,34,13.80
2007,06,29,00,35,13.80
2007,06,29,00,36,13.80
2007,06,29,00,37,13.80
2007,06,29,00,38,13.70
2007,06,29,00,39,13.70
2007,06,29,00,40,13.70
2007,06,29,00,41,13.70
2007,06,29,00,42,13.70
2007,06,29,00,43,13.70
2007,06,29,00,44,13.70
2007,06,29,00,45,13.70
2007,06,29,00,46,13.70
2007,06,29,00,47,13.60
2007,06,29,00,48,13.60
2007,06,29,00,49,13.60
2007,06,29,00,50,13.60
2007,06,29,00,51,13.60
2007,06,29,00,52,13.60
2007,06,29,00,53,13.50
2007,06,29,00,54,13.50
2007,06,29,00,55,13.50
2007,06,29,00,56,13.50
2007,06,29,00,57,13.50
2007,06,29,00,58,13.50
2007,06,29,00,59,13.50
2007,06,29,01,00,13.50
2007,06,29,01,01,13.50
2007,06,29,01,02,13.50
2007,06,29,01,03,13.50
2007,06,29,01,04,13.50
2007,06,29,01,05,13.50
2007,06,29,01,06,13.50
2007,06,29,01,07,13.60
2007,06,29,01,08,13.60
2007,06,29,01,09,13.60
2007,06,29,01,10,13.60
2007,06,29,01,11,13.60
2007,06,29,01,12,13.60
2007,06,29,01,13,13.60
2007,06,29,01,14,13.60
2007,06,29,01,15,13.60
2007,06,29,01,16,13.60
2007,06,29,01,17,13.60
2007,06,29,01,18,13.60
2007,06,29,01,19,13.50
2007,06,29,01,20,13.50
2007,06,29,01,21,13.50
2007,06,29,01,22,13.50
2007,06,29,01,23,13.50
2007,06,29,01,24,13.50
2007,06,29,01,25,13.50
2007,06,29,01,26,13.50
2007,06,29,01,27,13.50
2007,06,29,01,28,13.50
2007,06,29,01,29,13.50
2007,06,29,01,30,13.50
2007,06,29,01,31,13.50
2007,06,29,01,32,13.50
2007,06,29,01,33,13.50
2007,06,29,01,34,13.50
2007,06,29,01,35,13.50
2007,06,29,01,36,13.50
2007,06,29,01,37,13.50
2007,06,29,01,38,13.50
2007,06,29,01,39,13.50
2007,06,29,01,40,13.50
2007,06,29,01,41,13.60
2007,06,29,01,42,13.60
2007,06,29,01,43,13.70
2007,06,29,01,44,13.70
2007,06,29,01,45,13.80
2007,06,29,01,46,13.80
2007,06,29,01,47,13.80
2007,06,29,01,48,13.90
2007,06,29,01,49,13.90
2007,06,29,01,50,13.90
2007,06,29,01,51,13.90
2007,06,29,01,52,13.90
2007,06,29,01,53,13.90
2007,06,29,01,54,13.90
2007,06,29,01,55,13.90
2007,06,29,01,56,13.90
2007,06,29,01,57,13.90
2007,06,29,01,58,13.90
2007,06,29,01,59,13.90
2007,06,29,02,00,13.90
2007,06,29,02,01,14.00
2007,06,29,02,02,14.00
2007,06,29,02,03,14.00
2007,06,29,02,04,14.10
2007,06,29,02,05,14.10
2007,06,29,02,06,14.10
2007,06,29,02,07,14.10
2007,06,29,02,08,14.10
2007,06,29,02,09,14.20
2007,06,29,02,10,14.20
2007,06,29,02,11,14.20
2007,06,29,02,12,14.20
2007,06,29,02,13,14.20
2007,06,29,02,14,14.10
2007,06,29,02,15,14.10
2007,06,29,02,16,14.10
2007,06,29,02,17,14.10
2007,06,29,02,18,14.10
2007,06,29,02,19,14.10
2007,06,29,02,20,14.10
2007,06,29,02,21,14.10
2007,06,29,02,22,14.20
2007,06,29,02,23,14.20
2007,06,29,02,24,14.20
2007,06,29,02,25,14.20
2007,06,29,02,26,14.20
2007,06,29,02,27,14.20
2007,06,29,02,28,14.10
2007,06,29,02,29,14.10
2007,06,29,02,30,14.10
2007,06,29,02,31,14.10
2007,06,29,02,32,14.10
2007,06,29,02,33,14.10
2007,06,29,02,34,14.00
2007,06,29,02,35,14.00
2007,06,29,02,36,14.00
2007,06,29,02,37,14.00
2007,06,29,02,38,14.00
2007,06,29,02,39,13.90
2007,06,29,02,40,13.90
2007,06,29,02,41,13.90
2007,06,29,02,42,13.90
2007,06,29,02,43,13.90
2007,06,29,02,44,13.90
2007,06,29,02,45,13.90
2007,06,29,02,46,13.90
2007,06,29,02,47,13.90
2007,06,29,02,48,13.90
2007,06,29,02,49,13.80
2007,06,29,02,50,13.80
2007,06,29,02,51,13.70
2007,06,29,02,52,13.70
2007,06,29,02,53,13.70
2007,06,29,02,54,13.70
2007,06,29,02,55,13.70
2007,06,29,02,56,13.70
2007,06,29,02,57,13.70
2007,06,29,02,58,13.80
2007,06,29,02,59,13.80
2007,06,29,03,00,13.80
2007,06,29,03,01,13.80
2007,06,29,03,02,13.80
2007,06,29,03,03,13.80
2007,06,29,03,04,13.80
2007,06,29,03,05,13.80
2007,06,29,03,06,13.80
2007,06,29,03,07,13.80
2007,06,29,03,08,13.80
2007,06,29,03,09,13.80
2007,06,29,03,10,13.80
2007,06,29,03,11,13.80
2007,06,29,03,12,13.70
2007,06,29,03,13,13.80
2007,06,29,03,14,13.80
2007,06,29,03,15,13.80
2007,06,29,03,16,13.80
2007,06,29,03,17,13.80
2007,06,29,03,18,13.80
2007,06,29,03,19,13.80
2007,06,29,03,20,13.80
2007,06,29,03,21,13.80
2007,06,29,03,22,13.80
2007,06,29,03,23,13.80
2007,06,29,03,24,13.90
2007,06,29,03,25,13.90
2007,06,29,03,26,13.90
2007,06,29,03,27,13.90
2007,06,29,03,28,13.90
2007,06,29,03,29,13.90
2007,06,29,03,30,13.90
2007,06,29,03,31,13.90
2007,06,29,03,32,13.90
2007,06,29,03,33,13.90
2007,06,29,03,34,13.90
2007,06,29,03,35,13.90
2007,06,29,03,36,13.90
2007,06,29,03,37,13.90
2007,06,29,03,38,13.90
2007,06,29,03,39,13.90
2007,06,29,03,40,14.00
2007,06,29,03,41,14.00
2007,06,29,03,42,14.00
2007,06,29,03,43,14.00
2007,06,29,03,44,14.00
2007,06,29,03,45,14.00
2007,06,29,03,46,14.00
2007,06,29,03,47,13.90
2007,06,29,03,48,13.90
2007,06,29,03,49,13.80
2007,06,29,03,50,13.70
2007,06,29,03,51,13.60
2007,06,29,03,52,13.60
2007,06,29,03,53,13.50
2007,06,29,03,54,13.50
2007,06,29,03,55,13.40
2007,06,29,03,56,13.30
2007,06,29,03,57,13.30
2007,06,29,03,58,13.30
2007,06,29,03,59,13.30
2007,06,29,04,00,13.40
2007,06,29,04,01,13.40
2007,06,29,04,02,13.50
2007,06,29,04,03,13.50
2007,06,29,04,04,13.50
2007,06,29,04,05,13.50
2007,06,29,04,06,13.40
2007,06,29,04,07,13.40
2007,06,29,04,08,13.40
2007,06,29,04,09,13.40
2007,06,29,04,10,13.40
2007,06,29,04,11,13.40
2007,06,29,04,12,13.40
2007,06,29,04,13,13.40
2007,06,29,04,14,13.40
2007,06,29,04,15,13.40
2007,06,29,04,16,13.40
2007,06,29,04,17,13.40
2007,06,29,04,18,13.40
2007,06,29,04,19,13.40
2007,06,29,04,20,13.40
2007,06,29,04,21,13.40
2007,06,29,04,22,13.40
2007,06,29,04,23,13.30
2007,06,29,04,24,13.30
2007,06,29,04,25,13.30
2007,06,29,04,26,13.30
2007,06,29,04,27,13.30
2007,06,29,04,28,13.30
2007,06,29,04,29,13.40
2007,06,29,04,30,13.40
2007,06,29,04,31,13.40
2007,06,29,04,32,13.40
2007,06,29,04,33,13.40
2007,06,29,04,34,13.40
2007,06,29,04,35,13.40
2007,06,29,04,36,13.50
2007,06,29,04,37,13.50
2007,06,29,04,38,13.50
2007,06,29,04,39,13.50
2007,06,29,04,40,13.60
2007,06,29,04,41,13.60
2007,06,29,04,42,13.50
2007,06,29,04,43,13.50
2007,06,29,04,44,13.50
2007,06,29,04,45,13.50
2007,06,29,04,46,13.40
2007,06,29,04,47,13.40
2007,06,29,04,48,13.30
2007,06,29,04,49,13.30
2007,06,29,04,50,13.30
2007,06,29,04,51,13.30
2007,06,29,04,52,13.30
2007,06,29,04,53,13.30
2007,06,29,04,54,13.30
2007,06,29,04,55,13.30
2007,06,29,04,56,13.30
2007,06,29,04,57,13.40
2007,06,29,04,58,13.40
2007,06,29,04,59,13.40
2007,06,29,05,00,13.40
2007,06,29,05,01,13.50
2007,06,29,05,02,13.50
2007,06,29,05,03,13.50
2007,06,29,05,04,13.50
2007,06,29,05,05,13.50
2007,06,29,05,06,13.50
2007,06,29,05,07,13.50
2007,06,29,05,08,13.50
2007,06,29,05,09,13.40
2007,06,29,05,10,13.40
2007,06,29,05,11,13.40
2007,06,29,05,12,13.30
2007,06,29,05,13,13.30
2007,06,29,05,14,13.30
2007,06,29,05,15,13.30
2007,06,29,05,16,13.30
2007,06,29,05,17,13.30
2007,06,29,05,18,13.30
2007,06,29,05,19,13.20
2007,06,29,05,20,13.20
2007,06,29,05,21,13.20
2007,06,29,05,22,13.20
2007,06,29,05,23,13.10
2007,06,29,05,24,13.10
2007,06,29,05,25,13.10
2007,06,29,05,26,13.10
2007,06,29,05,27,13.00
2007,06,29,05,28,13.00
2007,06,29,05,29,13.00
2007,06,29,05,30,13.00
2007,06,29,05,31,13.00
2007,06,29,05,32,13.00
2007,06,29,05,33,13.00
2007,06,29,05,34,12.90
2007,06,29,05,35,12.90
2007,06,29,05,36,12.90
2007,06,29,05,37,12.90
2007,06,29,05,38,12.80
2007,06,29,05,39,12.80
2007,06,29,05,40,12.80
2007,06,29,05,41,12.80
2007,06,29,05,42,12.70
2007,06,29,05,43,12.70
2007,06,29,05,44,12.70
2007,06,29,05,45,12.60
2007,06,29,05,46,12.60
2007,06,29,05,47,12.50
2007,06,29,05,48,12.50
2007,06,29,05,49,12.50
2007,06,29,05,50,12.50
2007,06,29,05,51,12.40
2007,06,29,05,52,12.40
2007,06,29,05,53,12.40
2007,06,29,05,54,12.40
2007,06,29,05,55,12.40
2007,06,29,05,56,12.40
2007,06,29,05,57,12.40
2007,06,29,05,58,12.40
2007,06,29,05,59,12.30
2007,06,29,06,00,12.30
2007,06,29,06,01,12.30
2007,06,29,06,02,12.30
2007,06,29,06,03,12.30
2007,06,29,06,04,12.30
2007,06,29,06,05,12.40
2007,06,29,06,06,12.40
2007,06,29,06,07,12.40
2007,06,29,06,08,12.40
2007,06,29,06,09,12.40
2007,06,29,06,10,12.30
2007,06,29,06,11,12.30
2007,06,29,06,12,12.30
2007,06,29,06,13,12.30
2007,06,29,06,14,12.30
2007,06,29,06,15,12.30
2007,06,29,06,16,12.30
2007,06,29,06,17,12.30
2007,06,29,06,18,12.30
2007,06,29,06,19,12.30
2007,06,29,06,20,12.30
2007,06,29,06,21,12.40
2007,06,29,06,22,12.40
2007,06,29,06,23,12.40
2007,06,29,06,24,12.40
2007,06,29,06,25,12.40
2007,06,29,06,26,12.40
2007,06,29,06,27,12.40
2007,06,29,06,28,12.40
2007,06,29,06,29,12.50
2007,06,29,06,30,12.50
2007,06,29,06,31,12.50
2007,06,29,06,32,12.50
2007,06,29,06,33,12.50
2007,06,29,06,34,12.50
2007,06,29,06,35,12.50
2007,06,29,06,36,12.50
2007,06,29,06,37,12.50
2007,06,29,06,38,12.50
2007,06,29,06,39,12.50
2007,06,29,06,40,12.50
2007,06,29,06,41,12.60
2007,06,29,06,42,12.60
2007,06,29,06,43,12.60
2007,06,29,06,44,12.70
2007,06,29,06,45,12.70
2007,06,29,06,46,12.70
2007,06,29,06,47,12.80
2007,06,29,06,48,12.80
2007,06,29,06,49,12.80
2007,06,29,06,50,12.80
2007,06,29,06,51,12.80
2007,06,29,06,52,12.80
2007,06,29,06,53,12.80
2007,06,29,06,54,12.80
2007,06,29,06,55,12.80
2007,06,29,06,56,12.80
2007,06,29,06,57,12.80
2007,06,29,06,58,12.80
2007,06,29,06,59,12.80
2007,06,29,07,00,12.80
2007,06,29,07,01,12.80
2007,06,29,07,02,12.80
2007,06,29,07,03,12.80
2007,06,29,07,04,12.90
2007,06,29,07,05,12.90
2007,06,29,07,06,12.90
2007,06,29,07,07,13.00
2007,06,29,07,08,13.00
2007,06,29,07,09,13.00
2007,06,29,07,10,13.00
2007,06,29,07,11,13.10
2007,06,29,07,12,13.10
2007,06,29,07,13,13.10
2007,06,29,07,14,13.20
2007,06,29,07,15,13.20
2007,06,29,07,16,13.20
2007,06,29,07,17,13.20
2007,06,29,07,18,13.20
2007,06,29,07,19,13.20
2007,06,29,07,20,13.20
2007,06,29,07,21,13.20
2007,06,29,07,22,13.20
2007,06,29,07,23,13.20
2007,06,29,07,24,13.20
2007,06,29,07,25,13.20
2007,06,29,07,26,13.20
2007,06,29,07,27,13.20
2007,06,29,07,28,13.20
2007,06,29,07,29,13.20
2007,06,29,07,30,13.20
2007,06,29,07,31,13.20
2007,06,29,07,32,13.20
2007,06,29,07,33,13.20
2007,06,29,07,34,13.10
2007,06,29,07,35,13.10
2007,06,29,07,36,13.10
2007,06,29,07,37,13.10
2007,06,29,07,38,13.10
2007,06,29,07,39,13.10
2007,06,29,07,40,13.10
2007,06,29,07,41,13.10
2007,06,29,07,42,13.10
2007,06,29,07,43,13.10
2007,06,29,07,44,13.10
2007,06,29,07,45,13.10
2007,06,29,07,46,13.10
2007,06,29,07,47,13.10
2007,06,29,07,48,13.10
2007,06,29,07,49,13.10
2007,06,29,07,50,13.10
2007,06,29,07,51,13.10
2007,06,29,07,52,13.10
2007,06,29,07,53,13.10
2007,06,29,07,54,13.10
2007,06,29,07,55,13.10
2007,06,29,07,56,13.10
2007,06,29,07,57,13.10
2007,06,29,07,58,13.20
2007,06,29,07,59,13.20
2007,06,29,08,00,13.20
2007,06,29,08,01,13.20
2007,06,29,08,02,13.20
2007,06,29,08,03,13.20
2007,06,29,08,04,13.20
2007,06,29,08,05,13.20
2007,06,29,08,06,13.20
2007,06,29,08,07,13.20
2007,06,29,08,08,13.20
2007,06,29,08,09,13.20
2007,06,29,08,10,13.20
2007,06,29,08,11,13.30
2007,06,29,08,12,13.30
2007,06,29,08,13,13.30
2007,06,29,08,14,13.30
2007,06,29,08,15,13.30
2007,06,29,08,16,13.30
2007,06,29,08,17,13.30
2007,06,29,08,18,13.30
2007,06,29,08,19,13.30
2007,06,29,08,20,13.40
2007,06,29,08,21,13.40
2007,06,29,08,22,13.40
2007,06,29,08,23,13.50
2007,06,29,08,24,13.50
2007,06,29,08,25,13.50
2007,06,29,08,26,13.50
2007,06,29,08,27,13.50
2007,06,29,08,28,13.60
2007,06,29,08,29,13.60
2007,06,29,08,30,13.60
2007,06,29,08,31,13.60
2007,06,29,08,32,13.70
2007,06,29,08,33,13.70
2007,06,29,08,34,13.70
2007,06,29,08,35,13.80
2007,06,29,08,36,13.90
2007,06,29,08,37,13.90
2007,06,29,08,38,14.00
2007,06,29,08,39,14.00
2007,06,29,08,40,14.10
2007,06,29,08,41,14.10
2007,06,29,08,42,14.20
2007,06,29,08,43,14.20
2007,06,29,08,44,14.20
2007,06,29,08,45,14.20
2007,06,29,08,46,14.20
2007,06,29,08,47,14.10
2007,06,29,08,48,14.10
2007,06,29,08,49,14.10
2007,06,29,08,50,14.20
2007,06,29,08,51,14.20
2007,06,29,08,52,14.20
2007,06,29,08,53,14.20
2007,06,29,08,54,14.20
2007,06,29,08,55,14.10
2007,06,29,08,56,14.10
2007,06,29,08,57,14.10
2007,06,29,08,58,14.10
2007,06,29,08,59,14.10
2007,06,29,09,00,14.20
2007,06,29,09,01,14.20
2007,06,29,09,02,14.20
2007,06,29,09,03,14.20
2007,06,29,09,04,14.20
2007,06,29,09,05,14.20
2007,06,29,09,06,14.30
2007,06,29,09,07,14.30
2007,06,29,09,08,14.40
2007,06,29,09,09,14.40
2007,06,29,09,10,14.40
2007,06,29,09,11,14.50
2007,06,29,09,12,14.50
2007,06,29,09,13,14.50
2007,06,29,09,14,14.60
2007,06,29,09,15,14.60
2007,06,29,09,16,14.50
2007,06,29,09,17,14.50
2007,06,29,09,18,14.40
2007,06,29,09,19,14.30
2007,06,29,09,20,14.30
2007,06,29,09,21,14.30
2007,06,29,09,22,14.30
2007,06,29,09,23,14.30
2007,06,29,09,24,14.30
2007,06,29,09,25,14.30
2007,06,29,09,26,14.30
2007,06,29,09,27,14.40
2007,06,29,09,28,14.40
2007,06,29,09,29,14.50
2007,06,29,09,30,14.50
2007,06,29,09,31,14.50
2007,06,29,09,32,14.50
2007,06,29,09,33,14.60
2007,06,29,09,34,14.60
2007,06,29,09,35,14.60
2007,06,29,09,36,14.60
2007,06,29,09,37,14.70
2007,06,29,09,38,14.70
2007,06,29,09,39,14.70
2007,06,29,09,40,14.70
2007,06,29,09,41,14.70
2007,06,29,09,42,14.70
2007,06,29,09,43,14.60
2007,06,29,09,44,14.60
2007,06,29,09,45,14.60
2007,06,29,09,46,14.60
2007,06,29,09,47,14.60
2007,06,29,09,48,14.60
2007,06,29,09,49,14.60
2007,06,29,09,50,14.70
2007,06,29,09,51,14.70
2007,06,29,09,52,14.80
2007,06,29,09,53,14.70
2007,06,29,09,54,14.70
2007,06,29,09,55,14.70
2007,06,29,09,56,14.60
2007,06,29,09,57,14.50
2007,06,29,09,58,14.50
2007,06,29,09,59,14.60
2007,06,29,10,00,14.70
2007,06,29,10,01,14.70
2007,06,29,10,02,14.80
2007,06,29,10,03,14.80
2007,06,29,10,04,14.90
2007,06,29,10,05,14.90
2007,06,29,10,06,14.90
2007,06,29,10,07,14.80
2007,06,29,10,08,14.80
2007,06,29,10,09,14.80
2007,06,29,10,10,14.90
2007,06,29,10,11,15.00
2007,06,29,10,12,15.00
2007,06,29,10,13,15.10
2007,06,29,10,14,15.20
2007,06,29,10,15,15.30
2007,06,29,10,16,15.30
2007,06,29,10,17,15.30
2007,06,29,10,18,15.30
2007,06,29,10,19,15.20
2007,06,29,10,20,15.20
2007,06,29,10,21,15.20
2007,06,29,10,22,15.20
2007,06,29,10,23,15.10
2007,06,29,10,24,15.10
2007,06,29,10,25,15.10
2007,06,29,10,26,15.20
2007,06,29,10,27,15.30
2007,06,29,10,28,15.40
2007,06,29,10,29,15.50
2007,06,29,10,30,15.60
2007,06,29,10,31,15.60
2007,06,29,10,32,15.60
2007,06,29,10,33,15.70
2007,06,29,10,34,15.80
2007,06,29,10,35,15.80
2007,06,29,10,36,15.80
2007,06,29,10,37,15.80
2007,06,29,10,38,15.70
2007,06,29,10,39,15.70
2007,06,29,10,40,15.80
2007,06,29,10,41,15.80
2007,06,29,10,42,15.80
2007,06,29,10,43,15.80
2007,06,29,10,44,15.80
2007,06,29,10,45,15.90
2007,06,29,10,46,15.90
2007,06,29,10,47,16.00
2007,06,29,10,48,16.10
2007,06,29,10,49,16.10
2007,06,29,10,50,16.10
2007,06,29,10,51,16.20
2007,06,29,10,52,16.30
2007,06,29,10,53,16.30
2007,06,29,10,54,16.40
2007,06,29,10,55,16.40
2007,06,29,10,56,16.40
2007,06,29,10,57,16.50
2007,06,29,10,58,16.60
2007,06,29,10,59,16.70
2007,06,29,11,00,16.80
2007,06,29,11,01,16.80
2007,06,29,11,02,16.90
2007,06,29,11,03,16.80
2007,06,29,11,04,16.90
2007,06,29,11,05,16.90
2007,06,29,11,06,17.00
2007,06,29,11,07,17.10
2007,06,29,11,08,17.20
2007,06,29,11,09,17.10
2007,06,29,11,10,17.10
2007,06,29,11,11,17.00
2007,06,29,11,12,17.00
2007,06,29,11,13,17.00
2007,06,29,11,14,17.00
2007,06,29,11,15,17.00
2007,06,29,11,16,16.90
2007,06,29,11,17,16.90
2007,06,29,11,18,16.80
2007,06,29,11,19,16.70
2007,06,29,11,20,16.70
2007,06,29,11,21,16.70
2007,06,29,11,22,16.70
2007,06,29,11,23,16.70
2007,06,29,11,24,16.70
2007,06,29,11,25,16.70
2007,06,29,11,26,16.70
2007,06,29,11,27,16.70
2007,06,29,11,28,16.70
2007,06,29,11,29,16.80
2007,06,29,11,30,16.80
2007,06,29,11,31,16.90
2007,06,29,11,32,17.00
2007,06,29,11,33,17.10
2007,06,29,11,34,17.30
2007,06,29,11,35,17.30
2007,06,29,11,36,17.30
2007,06,29,11,37,17.30
2007,06,29,11,38,17.10
2007,06,29,11,39,17.00
2007,06,29,11,40,16.90
2007,06,29,11,41,16.80
2007,06,29,11,42,16.80
2007,06,29,11,43,16.80
2007,06,29,11,44,16.90
2007,06,29,11,45,16.90
2007,06,29,11,46,17.00
2007,06,29,11,47,17.00
2007,06,29,11,48,17.10
2007,06,29,11,49,17.30
2007,06,29,11,50,17.20
2007,06,29,11,51,17.10
2007,06,29,11,52,17.00
2007,06,29,11,53,17.00
2007,06,29,11,54,17.00
2007,06,29,11,55,17.00
2007,06,29,11,56,17.10
2007,06,29,11,57,17.20
2007,06,29,11,58,17.20
2007,06,29,11,59,17.30
2007,06,29,12,00,17.40
2007,06,29,12,01,17.40
2007,06,29,12,02,17.40
2007,06,29,12,03,17.40
2007,06,29,12,04,17.40
2007,06,29,12,05,17.40
2007,06,29,12,06,17.40
2007,06,29,12,07,17.40
2007,06,29,12,08,17.40
2007,06,29,12,09,17.30
2007,06,29,12,10,17.30
2007,06,29,12,11,17.30
2007,06,29,12,12,17.30
2007,06,29,12,13,17.40
2007,06,29,12,14,17.40
2007,06,29,12,15,17.40
2007,06,29,12,16,17.50
2007,06,29,12,17,17.50
2007,06,29,12,18,17.40
2007,06,29,12,19,17.40
2007,06,29,12,20,17.40
2007,06,29,12,21,17.40
2007,06,29,12,22,17.30
2007,06,29,12,23,17.30
2007,06,29,12,24,17.20
2007,06,29,12,25,17.20
2007,06,29,12,26,17.10
2007,06,29,12,27,17.00
2007,06,29,12,28,16.90
2007,06,29,12,29,16.90
2007,06,29,12,30,16.90
2007,06,29,12,31,16.90
2007,06,29,12,32,16.90
2007,06,29,12,33,16.90
2007,06,29,12,34,16.90
2007,06,29,12,35,17.00
2007,06,29,12,36,17.10
2007,06,29,12,37,17.10
2007,06,29,12,38,17.20
2007,06,29,12,39,17.20
2007,06,29,12,40,17.20
2007,06,29,12,41,17.20
2007,06,29,12,42,17.10
2007,06,29,12,43,17.10
2007,06,29,12,44,17.00
2007,06,29,12,45,16.90
2007,06,29,12,46,16.80
2007,06,29,12,47,16.80
2007,06,29,12,48,16.70
2007,06,29,12,49,16.50
2007,06,29,12,50,16.40
2007,06,29,12,51,16.40
2007,06,29,12,52,16.30
2007,06,29,12,53,16.30
2007,06,29,12,54,16.30
2007,06,29,12,55,16.20
2007,06,29,12,56,16.10
2007,06,29,12,57,16.00
2007,06,29,12,58,15.90
2007,06,29,12,59,15.80
2007,06,29,13,00,15.80
2007,06,29,13,01,15.70
2007,06,29,13,02,15.70
2007,06,29,13,03,15.60
2007,06,29,13,04,15.50
2007,06,29,13,05,15.50
2007,06,29,13,06,15.40
2007,06,29,13,07,15.40
2007,06,29,13,08,15.40
2007,06,29,13,09,15.40
2007,06,29,13,10,15.30
2007,06,29,13,11,15.30
2007,06,29,13,12,15.20
2007,06,29,13,13,15.20
2007,06,29,13,14,15.10
2007,06,29,13,15,15.10
2007,06,29,13,16,15.00
2007,06,29,13,17,15.00
2007,06,29,13,18,15.00
2007,06,29,13,19,15.00
2007,06,29,13,20,15.00
2007,06,29,13,21,15.00
2007,06,29,13,22,15.00
2007,06,29,13,23,15.10
2007,06,29,13,24,15.10
2007,06,29,13,25,15.20
2007,06,29,13,26,15.20
2007,06,29,13,27,15.30
2007,06,29,13,28,15.30
2007,06,29,13,29,15.40
2007,06,29,13,30,15.50
2007,06,29,13,31,15.50
2007,06,29,13,32,15.60
2007,06,29,13,33,15.70
2007,06,29,13,34,15.80
2007,06,29,13,35,15.90
2007,06,29,13,36,16.00
2007,06,29,13,37,16.10
2007,06,29,13,38,16.20
2007,06,29,13,39,16.30
2007,06,29,13,40,16.40
2007,06,29,13,41,16.50
2007,06,29,13,42,16.60
2007,06,29,13,43,16.70
2007,06,29,13,44,16.70
2007,06,29,13,45,16.70
2007,06,29,13,46,16.60
2007,06,29,13,47,16.40
2007,06,29,13,48,16.30
2007,06,29,13,49,16.20
2007,06,29,13,50,16.10
2007,06,29,13,51,16.10
2007,06,29,13,52,15.90
2007,06,29,13,53,15.90
2007,06,29,13,54,15.80
2007,06,29,13,55,15.80
2007,06,29,13,56,15.70
2007,06,29,13,57,15.70
2007,06,29,13,58,15.60
2007,06,29,13,59,15.50
2007,06,29,14,00,15.50
2007,06,29,14,01,15.40
2007,06,29,14,02,15.40
2007,06,29,14,03,15.30
2007,06,29,14,04,15.30
2007,06,29,14,05,15.30
2007,06,29,14,06,15.30
2007,06,29,14,07,15.20
2007,06,29,14,08,15.20
2007,06,29,14,09,15.10
2007,06,29,14,10,15.00
2007,06,29,14,11,14.90
2007,06,29,14,12,14.80
2007,06,29,14,13,14.70
2007,06,29,14,14,14.60
2007,06,29,14,15,14.50
2007,06,29,14,16,14.50
2007,06,29,14,17,14.40
2007,06,29,14,18,14.30
2007,06,29,14,19,14.20
2007,06,29,14,20,14.20
2007,06,29,14,21,14.10
2007,06,29,14,22,14.10
2007,06,29,14,23,14.10
2007,06,29,14,24,14.00
2007,06,29,14,25,14.00
2007,06,29,14,26,14.00
2007,06,29,14,27,14.00
2007,06,29,14,28,14.00
2007,06,29,14,29,13.90
2007,06,29,14,30,13.90
2007,06,29,14,31,13.80
2007,06,29,14,32,13.80
2007,06,29,14,33,13.80
2007,06,29,14,34,13.80
2007,06,29,14,35,13.80
2007,06,29,14,36,13.90
2007,06,29,14,37,13.90
2007,06,29,14,38,14.00
2007,06,29,14,39,14.00
2007,06,29,14,40,14.00
2007,06,29,14,41,14.00
2007,06,29,14,42,14.00
2007,06,29,14,43,14.00
2007,06,29,14,44,14.10
2007,06,29,14,45,14.10
2007,06,29,14,46,14.20
2007,06,29,14,47,14.20
2007,06,29,14,48,14.10
2007,06,29,14,49,14.10
2007,06,29,14,50,14.10
2007,06,29,14,51,14.10
2007,06,29,14,52,14.10
2007,06,29,14,53,14.10
2007,06,29,14,54,14.10
2007,06,29,14,55,14.10
2007,06,29,14,56,14.10
2007,06,29,14,57,14.20
2007,06,29,14,58,14.20
2007,06,29,14,59,14.20
2007,06,29,15,00,14.20
2007,06,29,15,01,14.20
2007,06,29,15,02,14.20
2007,06,29,15,03,14.20
2007,06,29,15,04,14.20
2007,06,29,15,05,14.30
2007,06,29,15,06,14.30
2007,06,29,15,07,14.30
2007,06,29,15,08,14.40
2007,06,29,15,09,14.50
2007,06,29,15,10,14.60
2007,06,29,15,11,14.70
2007,06,29,15,12,14.80
2007,06,29,15,13,15.00
2007,06,29,15,14,15.00
2007,06,29,15,15,15.10
2007,06,29,15,16,15.20
2007,06,29,15,17,15.30
2007,06,29,15,18,15.30
2007,06,29,15,19,15.50
2007,06,29,15,20,15.70
2007,06,29,15,21,15.80
2007,06,29,15,22,16.00
2007,06,29,15,23,16.10
2007,06,29,15,24,16.10
2007,06,29,15,25,16.20
2007,06,29,15,26,16.20
2007,06,29,15,27,16.30
2007,06,29,15,28,16.40
2007,06,29,15,29,16.50
2007,06,29,15,30,16.60
2007,06,29,15,31,16.60
2007,06,29,15,32,16.70
2007,06,29,15,33,16.70
2007,06,29,15,34,16.80
2007,06,29,15,35,16.80
2007,06,29,15,36,16.70
2007,06,29,15,37,16.70
2007,06,29,15,38,16.70
2007,06,29,15,39,16.70
2007,06,29,15,40,16.70
2007,06,29,15,41,16.70
2007,06,29,15,42,16.70
2007,06,29,15,43,16.70
2007,06,29,15,44,16.70
2007,06,29,15,45,16.70
2007,06,29,15,46,16.70
2007,06,29,15,47,16.70
2007,06,29,15,48,16.70
2007,06,29,15,49,16.70
2007,06,29,15,50,16.70
2007,06,29,15,51,16.70
2007,06,29,15,52,16.70
2007,06,29,15,53,16.70
2007,06,29,15,54,16.70
2007,06,29,15,55,16.70
2007,06,29,15,56,16.70
2007,06,29,15,57,16.70
2007,06,29,15,58,16.60
2007,06,29,15,59,16.60
2007,06,29,16,00,16.50
2007,06,29,16,01,16.50
2007,06,29,16,02,16.40
2007,06,29,16,03,16.40
2007,06,29,16,04,16.40
2007,06,29,16,05,16.40
2007,06,29,16,06,16.40
2007,06,29,16,07,16.40
2007,06,29,16,08,16.50
2007,06,29,16,09,16.70
2007,06,29,16,10,16.70
2007,06,29,16,11,16.90
2007,06,29,16,12,17.00
2007,06,29,16,13,17.10
2007,06,29,16,14,17.20
2007,06,29,16,15,17.20
2007,06,29,16,16,17.30
2007,06,29,16,17,17.30
2007,06,29,16,18,17.30
2007,06,29,16,19,17.30
2007,06,29,16,20,17.40
2007,06,29,16,21,17.40
2007,06,29,16,22,17.50
2007,06,29,16,23,17.60
2007,06,29,16,24,17.60
2007,06,29,16,25,17.60
2007,06,29,16,26,17.70
2007,06,29,16,27,17.70
2007,06,29,16,28,17.70
2007,06,29,16,29,17.60
2007,06,29,16,30,17.60
2007,06,29,16,31,17.60
2007,06,29,16,32,17.60
2007,06,29,16,33,17.50
2007,06,29,16,34,17.50
2007,06,29,16,35,17.60
2007,06,29,16,36,17.60
2007,06,29,16,37,17.60
2007,06,29,16,38,17.50
2007,06,29,16,39,17.40
2007,06,29,16,40,17.30
2007,06,29,16,41,17.30
2007,06,29,16,42,17.20
2007,06,29,16,43,17.10
2007,06,29,16,44,17.10
2007,06,29,16,45,17.10
2007,06,29,16,46,17.00
2007,06,29,16,47,17.00
2007,06,29,16,48,17.00
2007,06,29,16,49,17.00
2007,06,29,16,50,17.00
2007,06,29,16,51,17.10
2007,06,29,16,52,17.10
2007,06,29,16,53,17.20
2007,06,29,16,54,17.20
2007,06,29,16,55,17.30
2007,06,29,16,56,17.30
2007,06,29,16,57,17.30
2007,06,29,16,58,17.30
2007,06,29,16,59,17.30
2007,06,29,17,00,17.20
2007,06,29,17,01,17.10
2007,06,29,17,02,17.10
2007,06,29,17,03,17.10
2007,06,29,17,04,17.10
2007,06,29,17,05,17.00
2007,06,29,17,06,17.00
2007,06,29,17,07,17.00
2007,06,29,17,08,16.90
2007,06,29,17,09,16.90
2007,06,29,17,10,16.80
2007,06,29,17,11,16.70
2007,06,29,17,12,16.70
2007,06,29,17,13,16.70
2007,06,29,17,14,16.70
2007,06,29,17,15,16.80
2007,06,29,17,16,16.90
2007,06,29,17,17,16.90
2007,06,29,17,18,16.90
2007,06,29,17,19,16.90